STARLINK-6167, 57126

Orbit data source: Space-Track

STARLINK-6167, 57126 is a payload satellite owned by SpaceX/Seattle (US) in LEO that was launched on Fri, 23 Jun 2023 UTC via an FALCON 9 launch vehicle from the Air Force Eastern Test Range (AFETR). Payload-class satellites include a variety of spacecraft equipped with specific instruments for various scientific and technological missions. These include communications satellites like Starlink; space stations such as the ISS; scientific satellites like the Hubble; Earth observation satellites from companies like Planet Labs, Umbra, and HawkEye 360; GPS; miniature CubeSats for education and research; and military/defense satellites.

Loading next visibility...
Identifier
57126, 2023-090AB
Orbit
LEO
Last TLE update
1 day ago
Origin
Manufacturer
SpaceX/Seattle
Mission
Operational Commercial Communications
Bus & Motor
STARLINK, Unknown motor
Mass
305 kg wet, ~290 kg dry
Launch date (UTC)
2023-06-23 (2 years ago)
Launch vehicle
FALCON 9
Launch site
Air Force Eastern Test Range (AFETR)
Object type
Payload
Rocket body
Debris
Shape & HBR
Box + 1 Pan, 9 m
Radar Cross Section
11.087 m², Large (>1 m²)

Expand to show TLE details & history

TLE from 1 day ago
0 STARLINK-6167
1 57126U 23090AB  25187.43703469 -.00000216  00000-0 -94691-6 0  9990
2 57126  43.0025 172.4511 0001136 280.4582  79.6132 15.02533533112235
Epoch: 2025-07-06T10:29Z
TLE epoch observation values (Epoch: 2025-07-06T10:29:19.797Z)
Latitude
-0.00003°
Longitude
90.45784°
Altitude
558.723 km
Speed
7.584 km/s
True Right ascension
11h 29m 48s
True Declination
0° 00' 00"
Sunlit
Object was in daylight at epoch
Visualization orbit readout
Latitude
-10.71308°
Longitude
73.05238°
Altitude
560.447 km
Speed
7.583 km/s
Apparent Right ascension
11h 01m 26s
Apparent Declination
-25° 03' 05"
Sunlit
Object is in daylight
Visualization observer readout
Local Sidereal Time
23:59:09
Azimuth
43.462° NE
Elevation
-70.842°
Doppler factor
1
Orbital elements
Apogee altitude
561.799 km
Perigee altitude
560.222 km
Semi-major axis
6,939.148 km
Eccentricity
0.00011
Inclination
43.0025°
RAAN
172.4511°
Arg. of periapsis
280.4582°
True anomaly
Unknown
Mean anomaly
79.6132°
Eccentric anomaly
Unknown
Mean motion
3.75478 °/min
Orbital period
95.88 mins
BSTAR
-9.4691e-7
Loading maneuver chart data...
Loading SW <> Apogee altitude chart data...
Loading historical data...
Loading historical data...
Loading historical data...
Loading historical data...
Loading historical data...
Loading historical data...
Loading historical data...

STARLINK-6167 Visibility forecast

Observer location: undefined°, undefined°

Span
Click to sort rows by Start time (UTC) header in descending order
Start Az.
Max El. time (UTC)
Max El. Az.
Max El.
End time (UTC)
End Az.
4 mins2025-07-08 00:57:47.902Z176.235° S2025-07-08 00:59:47.902Z142.795° SSE17.466°2025-07-08 01:01:47.902Z109.026° ESE
6 mins2025-07-08 02:37:47.902Z237.108° WSW2025-07-08 02:39:47.902Z188.885° SSW43.168°2025-07-08 02:43:47.902Z74.238° E
7 mins2025-07-08 04:17:47.902Z279.851° WNW2025-07-08 04:20:47.902Z352.188° N39.933°2025-07-08 04:24:47.902Z74.417° E
7 mins2025-07-08 05:58:47.902Z290.956° WNW2025-07-08 06:01:47.902Z14.713° NNE43.575°2025-07-08 06:05:47.902Z98.523° ESE
6 mins2025-07-08 07:39:47.902Z268.835° W2025-07-08 07:42:47.902Z193.694° SSW30.851°2025-07-08 07:45:47.902Z144.545° SSE
|